Crosby, ND

9:05 AM CDT on June 23, 2017 (GMT -0500)
Crosby

Weather History for KD50 - March, 2013

Change the Weather History Date:

Thursday, March 14, 2013

  Actual Average (KISN) Record (KISN)
Temperature  
Mean Temperature 27 °F -  
Max Temperature 33 °F 37 °F 66 °F (2015)
Min Temperature 21 °F 19 °F -35 °F (1897)
Degree Days  
Heating Degree Days 38    
Moisture  
Dew Point 24 °F    
Average Humidity 93    
Maximum Humidity 100    
Minimum Humidity 80    
Precipitation  
Precipitation 0.13 in - - ()
Sea Level Pressure  
Sea Level Pressure 30.06 in    
Wind  
Wind Speed 9 mph (NW)    
Max Wind Speed 17 mph    
Max Gust Speed 22 mph    
Visibility 8 miles    
Events Fog , Snow    
Averages and records for this station are not official NWS values.
T = Trace of Precipitation, MM = Missing Value Source: NWS Daily Summary

Daily Weather History Graph

Daily Weather History Graph

Search for Another Location

Airport or City:

Trip Planner

Search our weather history database for the weather conditions in past years. The results will help you decide how hot, cold, wet, or windy it might be!

Date:

Astronomy

Mar. 14, 2013 Rise Set
Actual Time 8:07 AM CDT 7:57 PM CDT
Civil Twilight 7:36 AM CDT 8:28 PM CDT
Nautical Twilight 6:59 AM CDT 9:05 PM CDT
Astronomical Twilight 6:22 AM CDT 9:43 PM CDT
Moon 9:05 AM CDT (3/14) 11:37 PM CDT (3/14)
Length of Visible Light 12h 52m
Length of Day
11h 49m
Waxing Crescent, 9% of the Moon is Illuminated
Mar 14
Waxing Crescent
Mar 19
First Quarter
Mar 27
Full
Apr 2
Last Quarter
Apr 10
New

Hourly Weather History & Observations

Time (CDT) Temp. Windchill Dew Point Humidity Pressure Visibility Wind Dir Wind Speed Gust Speed Precip Events Conditions
12:15 AM 32.0 °F 23.6 °F 32.0 °F 100% 29.97 in 10.0 mi West 10.4 mph - N/A   Clear
12:35 AM 32.0 °F 23.0 °F 30.2 °F 93% 29.97 in 10.0 mi WNW 11.5 mph - N/A   Clear
12:55 AM 33.8 °F 25.3 °F 30.2 °F 87% 29.97 in 10.0 mi WNW 11.5 mph - N/A   Clear
1:15 AM 32.0 °F 23.6 °F 28.4 °F 87% 29.99 in 10.0 mi SW 10.4 mph - N/A   Clear
1:35 AM 32.0 °F 25.6 °F 28.4 °F 87% 29.99 in 10.0 mi WSW 6.9 mph - N/A   Clear
1:55 AM 28.4 °F 19.7 °F 28.4 °F 100% 29.99 in 10.0 mi SW 9.2 mph - N/A   Clear
2:15 AM 28.4 °F 21.2 °F 26.6 °F 93% 30.00 in 10.0 mi SW 6.9 mph - N/A   Clear
2:35 AM 28.4 °F 23.3 °F 26.6 °F 93% 30.00 in 10.0 mi SSW 4.6 mph - N/A   Clear
2:55 AM 26.6 °F 19.1 °F 24.8 °F 93% 30.00 in 10.0 mi SSW 6.9 mph - N/A   Clear
3:15 AM 26.6 °F 20.0 °F 24.8 °F 93% 30.00 in 10.0 mi SW 5.8 mph - N/A   Clear
3:35 AM 26.6 °F 20.0 °F 24.8 °F 93% 30.00 in 10.0 mi SW 5.8 mph - N/A   Clear
3:55 AM 24.8 °F 20.5 °F 24.8 °F 100% 30.00 in 10.0 mi SW 3.5 mph - N/A   Clear
4:15 AM 24.8 °F - 23.0 °F 93% 29.99 in 10.0 mi Calm Calm - N/A   Clear
4:35 AM 23.0 °F 15.8 °F 23.0 °F 100% 29.99 in 10.0 mi SSW 5.8 mph - N/A   Clear
4:55 AM 23.0 °F 13.1 °F 21.2 °F 93% 30.01 in 10.0 mi SSW 9.2 mph - N/A   Clear
5:15 AM 23.0 °F 15.8 °F 21.2 °F 93% 30.01 in 10.0 mi SW 5.8 mph - N/A   Clear
5:35 AM 24.8 °F 16.9 °F 23.0 °F 93% 30.00 in 10.0 mi SSW 6.9 mph - N/A   Clear
5:55 AM 24.8 °F 14.6 °F 24.8 °F 100% 29.99 in 10.0 mi SSW 10.4 mph - N/A   Clear
6:15 AM 26.6 °F 18.2 °F 24.8 °F 93% 30.00 in 10.0 mi SSW 8.1 mph - N/A   Clear
6:35 AM 24.8 °F 16.1 °F 24.8 °F 100% 30.00 in 10.0 mi SW 8.1 mph - N/A   Clear
6:55 AM 26.6 °F 16.8 °F 24.8 °F 93% 30.00 in 10.0 mi SSW 10.4 mph - N/A   Clear
7:15 AM 26.6 °F 16.2 °F 24.8 °F 93% 30.01 in 10.0 mi SSW 11.5 mph - N/A   Clear
7:35 AM 26.6 °F 17.5 °F 26.6 °F 100% 30.01 in 10.0 mi SW 9.2 mph - N/A   Clear
7:55 AM 26.6 °F 18.2 °F 24.8 °F 93% 30.02 in 10.0 mi SW 8.1 mph - N/A   Clear
8:15 AM 26.6 °F 22.6 °F 24.8 °F 93% 30.02 in 10.0 mi SSW 3.5 mph - N/A   Clear
8:35 AM 24.8 °F 14.6 °F 24.8 °F 100% 30.01 in 10.0 mi SSW 10.4 mph - N/A   Clear
8:55 AM 24.8 °F 17.9 °F 24.8 °F 100% 30.02 in 10.0 mi SSW 5.8 mph - N/A   Clear
9:15 AM 24.8 °F 16.1 °F 24.8 °F 100% 30.02 in 10.0 mi South 8.1 mph - N/A   Clear
9:35 AM 24.8 °F - 23.0 °F 93% 30.03 in 10.0 mi Calm Calm - N/A   Clear
9:55 AM 24.8 °F 20.5 °F 23.0 °F 93% 30.04 in 10.0 mi NW 3.5 mph - N/A   Clear
10:15 AM 24.8 °F 16.9 °F 23.0 °F 93% 30.05 in 10.0 mi NW 6.9 mph - N/A   Partly Cloudy
10:35 AM 23.0 °F 12.4 °F 21.2 °F 93% 30.05 in 0.2 mi NNW 10.4 mph - N/A Fog Light Freezing Fog
10:55 AM 21.2 °F 12.6 °F 21.2 °F 100% 30.06 in 0.2 mi NNW 6.9 mph - N/A Fog Light Freezing Fog
11:15 AM 21.2 °F 12.6 °F 19.4 °F 93% 30.06 in 0.2 mi NNW 6.9 mph - N/A Fog Light Freezing Fog
11:35 AM 23.0 °F 14.7 °F 23.0 °F 100% 30.07 in 0.2 mi NW 6.9 mph - N/A Fog Light Freezing Fog
11:55 AM 24.8 °F 19.1 °F 24.8 °F 100% 30.07 in 0.2 mi WNW 4.6 mph - N/A Fog Light Freezing Fog
12:15 PM 24.8 °F 16.1 °F 24.8 °F 100% 30.07 in 5.0 mi NW 8.1 mph - N/A   Overcast
12:35 PM 26.6 °F 16.8 °F 26.6 °F 100% 30.08 in 7.0 mi NNW 10.4 mph - N/A   Mostly Cloudy
12:55 PM 24.8 °F 12.4 °F 24.8 °F 100% 30.09 in 5.0 mi North 15.0 mph - N/A   Mostly Cloudy
1:15 PM 23.0 °F 11.7 °F 23.0 °F 100% 30.08 in 0.5 mi NW 11.5 mph - N/A Fog Light Freezing Fog
1:35 PM 23.0 °F 10.6 °F 23.0 °F 100% 30.08 in 0.2 mi NNW 13.8 mph - N/A Fog Light Freezing Fog
1:55 PM 23.0 °F 9.2 °F 23.0 °F 100% 30.08 in 0.5 mi NW 17.3 mph - N/A Fog Light Freezing Fog
2:15 PM 23.0 °F 9.6 °F 23.0 °F 100% 30.09 in 0.5 mi NNW 16.1 mph - N/A Fog Light Freezing Fog
2:35 PM 23.0 °F 11.7 °F 23.0 °F 100% 30.08 in 1.8 mi North 11.5 mph - N/A   Overcast
2:55 PM 23.0 °F 11.7 °F 23.0 °F 100% 30.09 in 1.0 mi North 11.5 mph - N/A   Overcast
3:15 PM 24.8 °F 14.0 °F 24.8 °F 100% 30.09 in 1.8 mi North 11.5 mph - N/A   Overcast
3:35 PM 24.8 °F 14.0 °F 24.8 °F 100% 30.09 in 2.5 mi North 11.5 mph - N/A   Overcast
3:55 PM 24.8 °F 12.9 °F 24.8 °F 100% 30.10 in 2.5 mi NNW 13.8 mph - N/A   Overcast
4:15 PM 24.8 °F 14.0 °F 24.8 °F 100% 30.09 in 7.0 mi NNW 11.5 mph - N/A   Overcast
4:35 PM 26.6 °F 15.2 °F 24.8 °F 93% 30.10 in 9.0 mi NNW 13.8 mph - N/A   Overcast
4:55 PM 26.6 °F 16.2 °F 24.8 °F 93% 30.10 in 10.0 mi North 11.5 mph 21.9 mph N/A   Overcast
5:15 PM 26.6 °F 15.2 °F 24.8 °F 93% 30.10 in 10.0 mi NNW 13.8 mph - N/A   Overcast
5:35 PM 26.6 °F 15.7 °F 24.8 °F 93% 30.11 in 10.0 mi North 12.7 mph - N/A   Overcast
5:55 PM 26.6 °F 15.7 °F 23.0 °F 86% 30.11 in 10.0 mi North 12.7 mph - N/A   Overcast
6:15 PM 26.6 °F 16.2 °F 23.0 °F 86% 30.11 in 10.0 mi North 11.5 mph - N/A   Overcast
6:35 PM 26.6 °F 15.7 °F 23.0 °F 86% 30.11 in 10.0 mi North 12.7 mph - N/A   Overcast
6:55 PM 26.6 °F 16.2 °F 23.0 °F 86% 30.12 in 10.0 mi North 11.5 mph - N/A   Overcast
7:15 PM 26.6 °F 15.2 °F 23.0 °F 86% 30.12 in 10.0 mi North 13.8 mph - N/A   Overcast
7:35 PM 26.6 °F 16.2 °F 23.0 °F 86% 30.12 in 10.0 mi North 11.5 mph - N/A   Overcast
7:55 PM 26.6 °F 16.8 °F 23.0 °F 86% 30.12 in 10.0 mi North 10.4 mph - N/A   Overcast
8:15 PM 26.6 °F 16.8 °F 23.0 °F 86% 30.12 in 10.0 mi East 10.4 mph - N/A   Overcast
8:35 PM 24.8 °F 13.4 °F 21.2 °F 86% 30.12 in 10.0 mi East 12.7 mph 17.3 mph N/A   Overcast
8:55 PM 24.8 °F 14.0 °F 19.4 °F 80% 30.12 in 10.0 mi East 11.5 mph - N/A   Overcast
9:15 PM 24.8 °F 13.4 °F 19.4 °F 80% 30.12 in 10.0 mi ENE 12.7 mph - N/A   Overcast
9:35 PM 24.8 °F 14.6 °F 19.4 °F 80% 30.12 in 10.0 mi East 10.4 mph - N/A   Overcast
9:55 PM 24.8 °F 14.6 °F 19.4 °F 80% 30.11 in 10.0 mi ENE 10.4 mph - N/A   Overcast
10:15 PM 24.8 °F 13.4 °F 19.4 °F 80% 30.10 in 9.0 mi ENE 12.7 mph - N/A   Overcast
10:35 PM 23.0 °F 10.6 °F 19.4 °F 86% 30.11 in 5.0 mi East 13.8 mph - N/A   Overcast
10:55 PM 23.0 °F 12.4 °F 19.4 °F 86% 30.12 in 7.0 mi East 10.4 mph - N/A   Overcast
11:15 PM 23.0 °F 11.1 °F 19.4 °F 86% 30.11 in 1.8 mi ENE 12.7 mph - 0.04 in Snow Light Snow
11:35 PM 23.0 °F 11.1 °F 19.4 °F 86% 30.10 in 3.0 mi ENE 12.7 mph - 0.08 in Snow Light Snow
11:55 PM 23.0 °F 10.1 °F 19.4 °F 86% 30.09 in 2.0 mi East 15.0 mph - 0.13 in Snow Light Snow